This is the latest recevied weather packets stored in our database for station/object KO4APQ. If no packets are shown the sender has not sent any weather packets the latest 10 day(s).
| Time | Temp. | Humidity | Pressure | Rain* | Wind** | Luminosity | Snow |
|---|---|---|---|---|---|---|---|
| 1777302926 | 15° C | 69% | 1024 hPa | 0 mm | - | 254 W/m² | - |
| 1777302621 | 15° C | 71% | 1023.8 hPa | 0 mm | - | 256 W/m² | - |
| 1777302320 | 14.44° C | 69% | 1024 hPa | 0 mm | - | 261 W/m² | - |
| 1777302017 | 15° C | 69% | 1023.9 hPa | 0 mm | - | 255 W/m² | - |
| 1777301716 | 15° C | 70% | 1023.6 hPa | 0 mm | - | 259 W/m² | - |
| 1777301412 | 14.44° C | 70% | 1023.7 hPa | 0 mm | - | 253 W/m² | - |
| 1777301109 | 15° C | 69% | 1023.5 hPa | 0 mm | - | 281 W/m² | - |
| 1777300806 | 15° C | 70% | 1023.5 hPa | 0 mm | - | 291 W/m² | - |
| 1777300504 | 14.44° C | 71% | 1023.4 hPa | 0 mm | - | 281 W/m² | - |
| 1777300201 | 15° C | 70% | 1023.4 hPa | 0 mm | - | 279 W/m² | - |
| 1777299897 | 14.44° C | 71% | 1023.3 hPa | 0 mm | - | 265 W/m² | - |
| 1777299595 | 14.44° C | 71% | 1023.5 hPa | 0 mm | - | 287 W/m² | - |
| 1777299292 | 14.44° C | 71% | 1023.2 hPa | 0 mm | - | 280 W/m² | - |
| 1777298989 | 14.44° C | 72% | 1023.5 hPa | 0 mm | - | 279 W/m² | - |
| 1777298687 | 14.44° C | 72% | 1023.3 hPa | 0 mm | - | 214 W/m² | - |
| 1777298383 | 14.44° C | 72% | 1023.4 hPa | 0 mm | - | 209 W/m² | - |
| 1777298080 | 14.44° C | 72% | 1023.4 hPa | 0 mm | - | 215 W/m² | - |
| 1777297778 | 14.44° C | 72% | 1023.3 hPa | 0 mm | - | 190 W/m² | - |
| 1777297478 | 13.89° C | 73% | 1023.4 hPa | 0 mm | - | 202 W/m² | - |
| 1777297174 | 13.89° C | 73% | 1023.2 hPa | 0 mm | - | 198 W/m² | - |
* Rain latest hour (hover to see other rain measurements)
** Current wind speed in m/s (hover to see current wind gust speed)